Time,TemperatureF,DewpointF,PressureIn,WindDirection,WindDirectionDegrees,WindSpeedMPH,WindSpeedGustMPH,Humidity,HourlyPrecipIn,Conditions,Clouds,dailyrainin,SoftwareType,DateUTC
2013-11-23 00:01:00,32.0,31.8,30.47,North,352,9.0,14.0,99,0.00,,,0.00,Wunderground v.1.15,2013-11-23 06:01:00,
2013-11-23 00:06:00,31.9,31.7,30.47,North,360,8.0,14.0,99,0.00,,,0.00,Wunderground v.1.15,2013-11-23 06:06:00,
2013-11-23 00:11:00,32.0,31.8,30.47,North,9,8.0,14.0,99,0.00,,,0.00,Wunderground v.1.15,2013-11-23 06:11:00,
2013-11-23 00:17:00,31.9,31.7,30.46,NNW,340,7.0,14.0,99,0.00,,,0.00,Wunderground v.1.15,2013-11-23 06:17:00,
2013-11-23 00:22:00,32.0,31.8,30.46,NNE,24,7.0,14.0,99,0.00,,,0.00,Wunderground v.1.15,2013-11-23 06:22:00,
2013-11-23 00:27:00,32.0,31.8,30.46,NNE,15,8.0,14.0,99,0.00,,,0.00,Wunderground v.1.15,2013-11-23 06:27:00,
2013-11-23 00:32:00,32.0,31.8,30.46,NNE,22,9.0,14.0,99,0.00,,,0.00,Wunderground v.1.15,2013-11-23 06:32:00,
2013-11-23 00:37:00,32.0,31.8,30.46,North,11,8.0,14.0,99,0.00,,,0.00,Wunderground v.1.15,2013-11-23 06:37:00,
2013-11-23 00:43:00,32.0,31.8,30.46,NNW,347,8.0,14.0,99,0.00,,,0.00,Wunderground v.1.15,2013-11-23 06:43:00,
2013-11-23 00:48:00,31.9,31.7,30.46,North,354,8.0,14.0,99,0.00,,,0.00,Wunderground v.1.15,2013-11-23 06:48:00,
2013-11-23 00:53:00,32.0,31.8,30.46,NNE,14,8.0,14.0,99,0.00,,,0.00,Wunderground v.1.15,2013-11-23 06:53:00,
2013-11-23 00:58:00,32.0,31.8,30.46,NNW,342,7.0,14.0,99,0.00,,,0.00,Wunderground v.1.15,2013-11-23 06:58:00,
2013-11-23 01:03:00,32.0,31.8,30.46,NNE,14,8.0,14.0,99,0.00,,,0.00,Wunderground v.1.15,2013-11-23 07:03:00,
2013-11-23 01:09:00,32.0,31.8,30.46,North,356,8.0,14.0,99,0.00,,,0.00,Wunderground v.1.15,2013-11-23 07:09:00,
2013-11-23 01:14:00,32.0,31.8,30.46,North,355,8.0,14.0,99,0.00,,,0.00,Wunderground v.1.15,2013-11-23 07:14:00,
2013-11-23 01:19:00,32.0,31.8,30.46,NNE,18,8.0,14.0,99,0.00,,,0.00,Wunderground v.1.15,2013-11-23 07:19:00,
2013-11-23 01:24:00,32.0,31.8,30.46,North,3,9.0,14.0,99,0.00,,,0.00,Wunderground v.1.15,2013-11-23 07:24:00,
2013-11-23 01:29:00,32.0,31.8,30.46,North,4,9.0,14.0,99,0.00,,,0.00,Wunderground v.1.15,2013-11-23 07:29:00,
2013-11-23 01:35:00,32.0,31.8,30.45,North,1,8.0,14.0,99,0.00,,,0.00,Wunderground v.1.15,2013-11-23 07:35:00,
2013-11-23 01:40:00,32.0,31.8,30.45,North,4,10.0,14.0,99,0.00,,,0.00,Wunderground v.1.15,2013-11-23 07:40:00,
2013-11-23 01:45:00,31.9,31.7,30.45,North,353,11.0,14.0,99,0.00,,,0.00,Wunderground v.1.15,2013-11-23 07:45:00,
2013-11-23 01:50:00,31.9,31.7,30.46,NNW,346,9.0,14.0,99,0.00,,,0.00,Wunderground v.1.15,2013-11-23 07:50:00,
2013-11-23 01:55:00,32.0,31.8,30.46,North,357,9.0,14.0,99,0.00,,,0.00,Wunderground v.1.15,2013-11-23 07:55:00,
2013-11-23 02:01:00,31.9,31.7,30.46,North,11,10.0,14.0,99,0.00,,,0.00,Wunderground v.1.15,2013-11-23 08:01:00,
2013-11-23 02:06:00,31.9,31.7,30.46,NNE,26,10.0,14.0,99,0.00,,,0.00,Wunderground v.1.15,2013-11-23 08:06:00,
2013-11-23 02:11:00,32.0,31.8,30.46,North,353,9.0,14.0,99,0.00,,,0.00,Wunderground v.1.15,2013-11-23 08:11:00,
2013-11-23 02:16:00,32.0,31.8,30.46,North,9,9.0,14.0,99,0.00,,,0.00,Wunderground v.1.15,2013-11-23 08:16:00,
2013-11-23 02:21:00,32.0,31.8,30.46,NE,44,8.0,14.0,99,0.00,,,0.00,Wunderground v.1.15,2013-11-23 08:21:00,
2013-11-23 02:26:00,32.0,31.8,30.47,NNW,330,7.0,14.0,99,0.00,,,0.00,Wunderground v.1.15,2013-11-23 08:26:00,
2013-11-23 02:31:00,32.0,31.8,30.47,NE,34,7.0,14.0,99,0.00,,,0.00,Wunderground v.1.15,2013-11-23 08:31:00,
2013-11-23 02:36:00,32.0,31.8,30.47,NNW,344,8.0,14.0,99,0.00,,,0.00,Wunderground v.1.15,2013-11-23 08:36:00,
2013-11-23 02:41:00,32.0,31.8,30.47,NE,44,9.0,14.0,99,0.00,,,0.00,Wunderground v.1.15,2013-11-23 08:41:00,
2013-11-23 02:46:00,32.0,31.8,30.47,NE,46,9.0,14.0,99,0.00,,,0.00,Wunderground v.1.15,2013-11-23 08:46:00,
2013-11-23 02:52:00,32.0,31.8,30.47,NNE,14,9.0,14.0,99,0.00,,,0.00,Wunderground v.1.15,2013-11-23 08:52:00,
2013-11-23 02:57:00,32.0,31.8,30.47,NNE,19,9.0,14.0,99,0.00,,,0.00,Wunderground v.1.15,2013-11-23 08:57:00,
2013-11-23 03:02:00,32.0,31.8,30.47,North,6,9.0,14.0,99,0.00,,,0.00,Wunderground v.1.15,2013-11-23 09:02:00,
2013-11-23 03:07:00,32.0,31.8,30.47,North,359,9.0,14.0,99,0.00,,,0.00,Wunderground v.1.15,2013-11-23 09:07:00,
2013-11-23 03:12:00,32.0,31.8,30.47,NNW,342,8.0,14.0,99,0.00,,,0.00,Wunderground v.1.15,2013-11-23 09:12:00,
2013-11-23 03:18:00,32.0,31.8,30.47,North,350,9.0,14.0,99,0.00,,,0.00,Wunderground v.1.15,2013-11-23 09:18:00,
2013-11-23 03:23:00,32.0,31.8,30.47,NE,37,10.0,14.0,99,0.00,,,0.00,Wunderground v.1.15,2013-11-23 09:23:00,
2013-11-23 03:28:00,32.0,31.8,30.47,North,353,10.0,16.0,99,0.00,,,0.00,Wunderground v.1.15,2013-11-23 09:28:00,
2013-11-23 03:33:00,32.0,31.8,30.47,NNE,25,9.0,14.0,99,0.00,,,0.00,Wunderground v.1.15,2013-11-23 09:33:00,
2013-11-23 03:38:00,32.0,31.8,30.47,North,9,9.0,14.0,99,0.00,,,0.00,Wunderground v.1.15,2013-11-23 09:38:00,
2013-11-23 03:43:00,31.9,31.7,30.47,North,6,10.0,14.0,99,0.00,,,0.00,Wunderground v.1.15,2013-11-23 09:43:00,
2013-11-23 03:49:00,31.9,31.7,30.47,North,357,10.0,14.0,99,0.00,,,0.00,Wunderground v.1.15,2013-11-23 09:49:00,
2013-11-23 03:54:00,31.9,31.7,30.47,NNW,342,10.0,14.0,99,0.00,,,0.00,Wunderground v.1.15,2013-11-23 09:54:00,
2013-11-23 03:59:00,31.9,31.7,30.47,NNW,332,10.0,14.0,99,0.00,,,0.00,Wunderground v.1.15,2013-11-23 09:59:00,
2013-11-23 04:04:00,31.9,31.7,30.47,NNE,15,9.0,14.0,99,0.00,,,0.00,Wunderground v.1.15,2013-11-23 10:04:00,
2013-11-23 04:09:00,31.8,31.6,30.47,North,359,10.0,14.0,99,0.00,,,0.00,Wunderground v.1.15,2013-11-23 10:09:00,
2013-11-23 04:15:00,31.8,31.6,30.47,NNW,342,10.0,14.0,99,0.00,,,0.00,Wunderground v.1.15,2013-11-23 10:15:00,
2013-11-23 04:20:00,31.8,31.6,30.47,NNE,27,10.0,10.0,99,0.00,,,0.00,Wunderground v.1.15,2013-11-23 10:20:00,
2013-11-23 04:25:00,31.8,31.6,30.47,North,11,10.0,14.0,99,0.00,,,0.00,Wunderground v.1.15,2013-11-23 10:25:00,
2013-11-23 04:30:00,31.8,31.6,30.47,NNW,342,10.0,10.0,99,0.00,,,0.00,Wunderground v.1.15,2013-11-23 10:30:00,
2013-11-23 04:35:00,31.8,31.6,30.47,NNE,27,10.0,15.0,99,0.00,,,0.00,Wunderground v.1.15,2013-11-23 10:35:00,
2013-11-23 04:41:00,31.8,31.6,30.47,North,355,11.0,14.0,99,0.00,,,0.00,Wunderground v.1.15,2013-11-23 10:41:00,
2013-11-23 04:46:00,31.7,31.5,30.48,NNE,15,10.0,14.0,99,0.00,,,0.00,Wunderground v.1.15,2013-11-23 10:46:00,
2013-11-23 04:51:00,31.6,31.4,30.48,NNW,340,10.0,14.0,99,0.00,,,0.00,Wunderground v.1.15,2013-11-23 10:51:00,
2013-11-23 04:56:00,31.6,31.4,30.48,NE,34,10.0,14.0,99,0.00,,,0.00,Wunderground v.1.15,2013-11-23 10:56:00,
2013-11-23 05:01:00,31.7,31.5,30.48,North,349,9.0,14.0,99,0.00,,,0.00,Wunderground v.1.15,2013-11-23 11:01:00,
2013-11-23 05:07:00,31.6,31.4,30.48,NNE,19,10.0,14.0,99,0.00,,,0.00,Wunderground v.1.15,2013-11-23 11:07:00,
2013-11-23 05:12:00,31.5,31.3,30.48,North,352,10.0,14.0,99,0.00,,,0.00,Wunderground v.1.15,2013-11-23 11:12:00,
2013-11-23 05:17:00,31.6,31.4,30.48,NNE,18,8.0,14.0,99,0.00,,,0.00,Wunderground v.1.15,2013-11-23 11:17:00,
2013-11-23 05:22:00,31.6,31.4,30.48,NE,35,9.0,12.0,99,0.00,,,0.00,Wunderground v.1.15,2013-11-23 11:22:00,
2013-11-23 05:27:00,31.5,31.3,30.48,North,11,10.0,14.0,99,0.00,,,0.00,Wunderground v.1.15,2013-11-23 11:27:00,
2013-11-23 05:32:00,31.5,31.3,30.49,North,5,9.0,14.0,99,0.00,,,0.00,Wunderground v.1.15,2013-11-23 11:32:00,
2013-11-23 05:37:00,31.4,31.2,30.49,NNW,338,9.0,14.0,99,0.00,,,0.00,Wunderground v.1.15,2013-11-23 11:37:00,
2013-11-23 05:42:00,31.4,31.2,30.49,North,355,10.0,14.0,99,0.00,,,0.00,Wunderground v.1.15,2013-11-23 11:42:00,
2013-11-23 05:48:00,31.4,31.2,30.49,North,354,10.0,14.0,99,0.00,,,0.00,Wunderground v.1.15,2013-11-23 11:48:00,
2013-11-23 05:53:00,31.5,31.3,30.49,North,11,10.0,14.0,99,0.00,,,0.00,Wunderground v.1.15,2013-11-23 11:53:00,
2013-11-23 05:58:00,31.6,31.4,30.49,North,9,10.0,14.0,99,0.00,,,0.00,Wunderground v.1.15,2013-11-23 11:58:00,
2013-11-23 06:03:00,31.6,31.4,30.49,NNE,18,10.0,14.0,99,0.00,,,0.00,Wunderground v.1.15,2013-11-23 12:03:00,
2013-11-23 06:08:00,31.6,31.4,30.49,North,358,9.0,14.0,99,0.00,,,0.00,Wunderground v.1.15,2013-11-23 12:08:00,
2013-11-23 06:13:00,31.6,31.4,30.49,NNE,32,9.0,14.0,99,0.00,,,0.00,Wunderground v.1.15,2013-11-23 12:13:00,
2013-11-23 06:18:00,31.6,31.4,30.49,North,352,9.0,14.0,99,0.00,,,0.00,Wunderground v.1.15,2013-11-23 12:18:00,
2013-11-23 06:24:00,31.6,31.4,30.49,NNW,335,9.0,14.0,99,0.00,,,0.00,Wunderground v.1.15,2013-11-23 12:24:00,
2013-11-23 06:29:00,31.6,31.4,30.49,North,1,10.0,15.0,99,0.00,,,0.00,Wunderground v.1.15,2013-11-23 12:29:00,
2013-11-23 06:34:00,31.5,31.3,30.50,NNE,20,11.0,16.0,99,0.00,,,0.00,Wunderground v.1.15,2013-11-23 12:34:00,
2013-11-23 06:39:00,31.6,31.4,30.50,NNW,342,10.0,10.0,99,0.00,,,0.00,Wunderground v.1.15,2013-11-23 12:39:00,
2013-11-23 06:44:00,31.6,31.4,30.51,NNE,13,9.0,14.0,99,0.00,,,0.00,Wunderground v.1.15,2013-11-23 12:44:00,
2013-11-23 06:50:00,31.6,31.4,30.51,NNW,348,9.0,9.0,99,0.00,,,0.00,Wunderground v.1.15,2013-11-23 12:50:00,
2013-11-23 06:55:00,31.6,31.4,30.51,NE,36,8.0,14.0,99,0.00,,,0.00,Wunderground v.1.15,2013-11-23 12:55:00,
2013-11-23 07:00:00,31.7,31.5,30.51,NNE,20,8.0,14.0,99,0.00,,,0.00,Wunderground v.1.15,2013-11-23 13:00:00,
2013-11-23 07:05:00,31.7,31.5,30.52,NW,326,9.0,14.0,99,0.00,,,0.00,Wunderground v.1.15,2013-11-23 13:05:00,
2013-11-23 07:10:00,31.7,31.5,30.52,North,349,9.0,14.0,99,0.00,,,0.00,Wunderground v.1.15,2013-11-23 13:10:00,
2013-11-23 07:16:00,31.8,31.6,30.52,North,11,9.0,14.0,99,0.00,,,0.00,Wunderground v.1.15,2013-11-23 13:16:00,
2013-11-23 07:21:00,31.8,31.6,30.52,North,350,9.0,14.0,99,0.00,,,0.00,Wunderground v.1.15,2013-11-23 13:21:00,
2013-11-23 07:26:00,31.7,31.5,30.52,North,11,9.0,14.0,99,0.00,,,0.00,Wunderground v.1.15,2013-11-23 13:26:00,
2013-11-23 07:31:00,31.8,31.6,30.52,NE,46,9.0,14.0,99,0.00,,,0.00,Wunderground v.1.15,2013-11-23 13:31:00,
2013-11-23 07:36:00,31.8,31.6,30.53,North,6,9.0,14.0,99,0.00,,,0.00,Wunderground v.1.15,2013-11-23 13:36:00,
2013-11-23 07:42:00,31.7,31.5,30.53,NNE,13,10.0,14.0,99,0.00,,,0.00,Wunderground v.1.15,2013-11-23 13:42:00,
2013-11-23 07:48:00,31.7,31.5,30.53,North,352,10.0,14.0,99,0.00,,,0.00,Wunderground v.1.15,2013-11-23 13:48:00,
2013-11-23 07:53:00,31.7,31.5,30.53,North,5,10.0,14.0,99,0.00,,,0.00,Wunderground v.1.15,2013-11-23 13:53:00,
2013-11-23 07:58:00,31.7,31.5,30.53,NNE,19,10.0,14.0,99,0.00,,,0.00,Wunderground v.1.15,2013-11-23 13:58:00,
2013-11-23 08:03:00,31.8,31.6,30.54,NNE,21,10.0,14.0,99,0.00,,,0.00,Wunderground v.1.15,2013-11-23 14:03:00,
2013-11-23 08:09:00,31.8,31.6,30.54,North,349,10.0,14.0,99,0.00,,,0.00,Wunderground v.1.15,2013-11-23 14:09:00,
2013-11-23 08:14:00,31.8,31.6,30.55,NE,39,10.0,14.0,99,0.00,,,0.00,Wunderground v.1.15,2013-11-23 14:14:00,
2013-11-23 08:19:00,31.8,31.6,30.55,North,355,9.0,14.0,99,0.00,,,0.00,Wunderground v.1.15,2013-11-23 14:19:00,
2013-11-23 08:24:00,31.8,31.6,30.55,NNE,20,10.0,14.0,99,0.00,,,0.00,Wunderground v.1.15,2013-11-23 14:24:00,
2013-11-23 08:29:00,31.9,31.7,30.55,NNW,343,10.0,14.0,99,0.00,,,0.00,Wunderground v.1.15,2013-11-23 14:29:00,
2013-11-23 08:35:00,31.9,31.7,30.56,NNE,30,9.0,14.0,99,0.00,,,0.00,Wunderground v.1.15,2013-11-23 14:35:00,
2013-11-23 08:40:00,31.9,31.7,30.55,NNW,342,9.0,14.0,99,0.00,,,0.00,Wunderground v.1.15,2013-11-23 14:40:00,
2013-11-23 08:45:00,32.0,31.8,30.56,NNE,18,9.0,14.0,99,0.00,,,0.00,Wunderground v.1.15,2013-11-23 14:45:00,
2013-11-23 08:50:00,32.0,31.8,30.56,North,11,9.0,9.0,99,0.00,,,0.00,Wunderground v.1.15,2013-11-23 14:50:00,
2013-11-23 08:55:00,32.1,31.9,30.56,NNE,19,8.0,14.0,99,0.00,,,0.00,Wunderground v.1.15,2013-11-23 14:55:00,
2013-11-23 09:01:00,32.0,31.8,30.56,NNE,25,9.0,15.0,99,0.00,,,0.00,Wunderground v.1.15,2013-11-23 15:01:00,
2013-11-23 09:06:00,32.0,31.8,30.56,North,357,10.0,15.0,99,0.00,,,0.00,Wunderground v.1.15,2013-11-23 15:06:00,
2013-11-23 09:11:00,32.1,31.9,30.56,NNE,30,10.0,14.0,99,0.00,,,0.00,Wunderground v.1.15,2013-11-23 15:11:00,
2013-11-23 09:16:00,32.1,31.9,30.56,North,11,10.0,14.0,99,0.00,,,0.00,Wunderground v.1.15,2013-11-23 15:16:00,
2013-11-23 09:21:00,32.1,31.9,30.56,NNE,31,9.0,14.0,99,0.00,,,0.00,Wunderground v.1.15,2013-11-23 15:21:00,
2013-11-23 09:27:00,32.1,31.9,30.56,North,359,10.0,14.0,99,0.00,,,0.00,Wunderground v.1.15,2013-11-23 15:27:00,
2013-11-23 09:32:00,32.1,31.9,30.56,NE,34,10.0,14.0,99,0.00,,,0.00,Wunderground v.1.15,2013-11-23 15:32:00,
2013-11-23 09:37:00,32.2,32.0,30.57,NE,39,9.0,14.0,99,0.00,,,0.00,Wunderground v.1.15,2013-11-23 15:37:00,
2013-11-23 09:42:00,32.3,32.1,30.57,NNE,13,9.0,14.0,99,0.00,,,0.00,Wunderground v.1.15,2013-11-23 15:42:00,
2013-11-23 09:47:00,32.3,32.1,30.57,NNE,30,8.0,14.0,99,0.00,,,0.00,Wunderground v.1.15,2013-11-23 15:47:00,
2013-11-23 09:52:00,32.5,32.3,30.56,NNE,19,8.0,14.0,99,0.00,,,0.00,Wunderground v.1.15,2013-11-23 15:52:00,
2013-11-23 09:57:00,32.6,32.4,30.56,NNE,30,9.0,14.0,99,0.00,,,0.00,Wunderground v.1.15,2013-11-23 15:57:00,
2013-11-23 10:02:00,32.7,32.5,30.56,NNE,29,9.0,14.0,99,0.00,,,0.00,Wunderground v.1.15,2013-11-23 16:02:00,
2013-11-23 10:07:00,32.8,32.6,30.56,NNE,20,9.0,16.0,99,0.00,,,0.00,Wunderground v.1.15,2013-11-23 16:07:00,
2013-11-23 10:12:00,32.8,32.6,30.56,North,9,11.0,14.0,99,0.00,,,0.00,Wunderground v.1.15,2013-11-23 16:12:00,
2013-11-23 10:18:00,32.9,32.7,30.55,NE,39,10.0,14.0,99,0.00,,,0.00,Wunderground v.1.15,2013-11-23 16:18:00,
2013-11-23 10:23:00,33.0,32.8,30.55,North,11,10.0,14.0,99,0.00,,,0.00,Wunderground v.1.15,2013-11-23 16:23:00,
2013-11-23 10:28:00,33.0,32.8,30.56,NNE,32,11.0,14.0,99,0.00,,,0.00,Wunderground v.1.15,2013-11-23 16:28:00,
2013-11-23 10:33:00,33.1,32.9,30.56,NE,49,11.0,16.0,99,0.00,,,0.00,Wunderground v.1.15,2013-11-23 16:33:00,
2013-11-23 10:38:00,33.3,33.0,30.56,North,1,11.0,16.0,99,0.00,,,0.00,Wunderground v.1.15,2013-11-23 16:38:00,
2013-11-23 10:44:00,33.2,33.0,30.56,NE,42,11.0,18.0,99,0.00,,,0.00,Wunderground v.1.15,2013-11-23 16:44:00,
2013-11-23 10:49:00,33.3,33.0,30.56,NNE,26,11.0,18.0,99,0.00,,,0.00,Wunderground v.1.15,2013-11-23 16:49:00,
2013-11-23 10:54:00,33.6,33.3,30.56,North,359,10.0,14.0,99,0.00,,,0.00,Wunderground v.1.15,2013-11-23 16:54:00,
2013-11-23 10:59:00,33.6,33.3,30.56,North,352,10.0,14.0,99,0.00,,,0.00,Wunderground v.1.15,2013-11-23 16:59:00,
2013-11-23 11:04:00,33.7,33.4,30.56,NNE,27,10.0,14.0,99,0.00,,,0.00,Wunderground v.1.15,2013-11-23 17:04:00,
2013-11-23 11:09:00,33.7,33.4,30.55,North,353,10.0,16.0,99,0.00,,,0.00,Wunderground v.1.15,2013-11-23 17:09:00,
2013-11-23 11:15:00,33.9,33.6,30.55,NE,39,10.0,14.0,99,0.00,,,0.00,Wunderground v.1.15,2013-11-23 17:15:00,
2013-11-23 11:20:00,33.8,33.5,30.55,NE,47,10.0,14.0,99,0.00,,,0.00,Wunderground v.1.15,2013-11-23 17:20:00,
2013-11-23 11:25:00,33.7,33.4,30.55,NNE,30,12.0,15.0,99,0.00,,,0.00,Wunderground v.1.15,2013-11-23 17:25:00,
2013-11-23 11:30:00,33.9,33.6,30.55,NE,41,12.0,16.0,99,0.00,,,0.00,Wunderground v.1.15,2013-11-23 17:30:00,
2013-11-23 11:35:00,33.7,33.4,30.55,NNE,18,12.0,16.0,99,0.00,,,0.00,Wunderground v.1.15,2013-11-23 17:35:00,
2013-11-23 11:41:00,33.8,33.5,30.55,NNE,20,12.0,14.0,99,0.00,,,0.00,Wunderground v.1.15,2013-11-23 17:41:00,
2013-11-23 11:46:00,33.8,33.5,30.54,NE,35,12.0,16.0,99,0.00,,,0.00,Wunderground v.1.15,2013-11-23 17:46:00,
2013-11-23 11:51:00,33.9,33.6,30.54,NE,41,11.0,14.0,99,0.00,,,0.00,Wunderground v.1.15,2013-11-23 17:51:00,
2013-11-23 11:56:00,34.0,33.7,30.54,NE,41,10.0,14.0,99,0.00,,,0.00,Wunderground v.1.15,2013-11-23 17:56:00,
2013-11-23 12:01:00,34.0,33.7,30.55,NNE,29,10.0,14.0,99,0.00,,,0.00,Wunderground v.1.15,2013-11-23 18:01:00,
2013-11-23 12:07:00,33.9,33.6,30.55,NE,47,11.0,15.0,99,0.00,,,0.00,Wunderground v.1.15,2013-11-23 18:07:00,
2013-11-23 12:12:00,34.0,33.7,30.55,North,5,10.0,14.0,99,0.00,,,0.00,Wunderground v.1.15,2013-11-23 18:12:00,
2013-11-23 12:17:00,34.0,33.7,30.54,NNE,30,10.0,14.0,99,0.00,,,0.00,Wunderground v.1.15,2013-11-23 18:17:00,
2013-11-23 12:22:00,34.2,33.9,30.54,NE,42,9.0,14.0,99,0.00,,,0.00,Wunderground v.1.15,2013-11-23 18:22:00,
2013-11-23 12:27:00,34.4,34.1,30.54,NNE,20,8.0,14.0,99,0.00,,,0.00,Wunderground v.1.15,2013-11-23 18:27:00,
2013-11-23 12:33:00,34.4,34.1,30.53,NNE,25,9.0,14.0,99,0.00,,,0.00,Wunderground v.1.15,2013-11-23 18:33:00,
2013-11-23 12:38:00,34.1,33.8,30.53,NNE,31,10.0,14.0,99,0.00,,,0.00,Wunderground v.1.15,2013-11-23 18:38:00,
2013-11-23 12:43:00,34.2,33.9,30.52,NNE,22,10.0,14.0,99,0.00,,,0.00,Wunderground v.1.15,2013-11-23 18:43:00,
2013-11-23 12:48:00,34.2,33.9,30.52,NE,37,9.0,16.0,99,0.00,,,0.00,Wunderground v.1.15,2013-11-23 18:48:00,
2013-11-23 12:53:00,34.1,33.8,30.51,NNE,27,10.0,14.0,99,0.00,,,0.00,Wunderground v.1.15,2013-11-23 18:53:00,
2013-11-23 12:59:00,34.2,33.9,30.51,East,81,11.0,14.0,99,0.00,,,0.00,Wunderground v.1.15,2013-11-23 18:59:00,
2013-11-23 13:04:00,34.5,34.2,30.51,NE,49,10.0,14.0,99,0.00,,,0.00,Wunderground v.1.15,2013-11-23 19:04:00,
2013-11-23 13:09:00,34.6,34.3,30.51,NE,41,9.0,14.0,99,0.00,,,0.00,Wunderground v.1.15,2013-11-23 19:09:00,
2013-11-23 13:14:00,34.7,34.4,30.51,NE,44,9.0,14.0,99,0.00,,,0.00,Wunderground v.1.15,2013-11-23 19:14:00,
2013-11-23 13:19:00,34.9,34.6,30.50,NE,51,9.0,14.0,99,0.00,,,0.00,Wunderground v.1.15,2013-11-23 19:19:00,
2013-11-23 13:24:00,34.9,34.6,30.51,ENE,61,11.0,17.0,99,0.00,,,0.00,Wunderground v.1.15,2013-11-23 19:24:00,
2013-11-23 13:29:00,34.8,34.5,30.51,NE,47,11.0,11.0,99,0.00,,,0.00,Wunderground v.1.15,2013-11-23 19:29:00,
2013-11-23 13:34:00,35.1,35.1,30.50,NNE,25,10.0,15.0,100,0.00,,,0.00,Wunderground v.1.15,2013-11-23 19:34:00,
2013-11-23 13:39:00,35.2,35.2,30.50,NNE,31,10.0,10.0,100,0.00,,,0.00,Wunderground v.1.15,2013-11-23 19:39:00,
2013-11-23 13:44:00,35.3,35.3,30.50,NNE,31,10.0,18.0,100,0.00,,,0.00,Wunderground v.1.15,2013-11-23 19:44:00,
2013-11-23 13:50:00,35.3,35.3,30.50,NNE,30,10.0,14.0,100,0.00,,,0.00,Wunderground v.1.15,2013-11-23 19:50:00,
2013-11-23 13:55:00,35.1,35.1,30.49,NNE,18,11.0,16.0,100,0.00,,,0.00,Wunderground v.1.15,2013-11-23 19:55:00,
2013-11-23 14:00:00,35.1,34.8,30.49,NE,43,10.0,14.0,99,0.00,,,0.00,Wunderground v.1.15,2013-11-23 20:00:00,
2013-11-23 14:05:00,35.0,35.0,30.49,NNE,26,9.0,14.0,100,0.00,,,0.00,Wunderground v.1.15,2013-11-23 20:05:00,
2013-11-23 14:10:00,34.9,34.6,30.49,NNE,31,11.0,14.0,99,0.00,,,0.00,Wunderground v.1.15,2013-11-23 20:10:00,
2013-11-23 14:16:00,34.8,34.8,30.49,NNE,13,11.0,17.0,100,0.00,,,0.00,Wunderground v.1.15,2013-11-23 20:16:00,
2013-11-23 14:21:00,34.8,34.5,30.49,NE,50,11.0,14.0,99,0.00,,,0.00,Wunderground v.1.15,2013-11-23 20:21:00,
2013-11-23 14:26:00,34.7,34.7,30.48,NE,34,12.0,16.0,100,0.00,,,0.00,Wunderground v.1.15,2013-11-23 20:26:00,
2013-11-23 14:31:00,34.9,34.9,30.48,North,9,12.0,14.0,100,0.00,,,0.00,Wunderground v.1.15,2013-11-23 20:31:00,
2013-11-23 14:36:00,34.9,34.9,30.48,NNE,27,12.0,14.0,100,0.00,,,0.00,Wunderground v.1.15,2013-11-23 20:36:00,
2013-11-23 14:41:00,35.0,35.0,30.49,NE,36,11.0,14.0,100,0.00,,,0.00,Wunderground v.1.15,2013-11-23 20:41:00,
2013-11-23 14:47:00,35.0,35.0,30.49,NNE,30,11.0,17.0,100,0.00,,,0.00,Wunderground v.1.15,2013-11-23 20:47:00,
2013-11-23 14:52:00,35.2,35.2,30.49,NE,50,11.0,14.0,100,0.00,,,0.00,Wunderground v.1.15,2013-11-23 20:52:00,
2013-11-23 14:57:00,35.2,35.2,30.48,NE,52,12.0,19.0,100,0.00,,,0.00,Wunderground v.1.15,2013-11-23 20:57:00,
2013-11-23 15:02:00,35.2,35.2,30.49,NNE,18,13.0,14.0,100,0.00,,,0.00,Wunderground v.1.15,2013-11-23 21:02:00,
2013-11-23 15:07:00,35.3,35.3,30.49,North,352,13.0,14.0,100,0.00,,,0.00,Wunderground v.1.15,2013-11-23 21:07:00,
2013-11-23 15:13:00,35.2,35.2,30.49,NE,35,12.0,17.0,100,0.00,,,0.00,Wunderground v.1.15,2013-11-23 21:13:00,
2013-11-23 15:18:00,35.2,35.2,30.48,NNE,21,12.0,18.0,100,0.00,,,0.00,Wunderground v.1.15,2013-11-23 21:18:00,
2013-11-23 15:23:00,35.1,35.1,30.48,NNE,26,12.0,15.0,100,0.00,,,0.00,Wunderground v.1.15,2013-11-23 21:23:00,
2013-11-23 15:28:00,35.1,35.1,30.49,NE,42,12.0,16.0,100,0.00,,,0.00,Wunderground v.1.15,2013-11-23 21:28:00,
2013-11-23 15:33:00,35.1,35.1,30.49,North,5,11.0,14.0,100,0.00,,,0.00,Wunderground v.1.15,2013-11-23 21:33:00,
2013-11-23 15:39:00,35.0,35.0,30.49,NE,44,11.0,15.0,100,0.00,,,0.00,Wunderground v.1.15,2013-11-23 21:39:00,
2013-11-23 15:44:00,35.1,35.1,30.49,NE,39,10.0,14.0,100,0.00,,,0.00,Wunderground v.1.15,2013-11-23 21:44:00,
2013-11-23 15:49:00,34.9,34.9,30.49,NNE,26,11.0,17.0,100,0.00,,,0.00,Wunderground v.1.15,2013-11-23 21:49:00,
2013-11-23 15:54:00,34.8,34.8,30.50,NNE,25,13.0,16.0,100,0.00,,,0.00,Wunderground v.1.15,2013-11-23 21:54:00,
2013-11-23 15:59:00,34.8,34.8,30.50,NE,52,12.0,16.0,100,0.00,,,0.00,Wunderground v.1.15,2013-11-23 21:59:00,
2013-11-23 16:05:00,34.8,34.8,30.50,NE,35,10.0,14.0,100,0.00,,,0.00,Wunderground v.1.15,2013-11-23 22:05:00,
2013-11-23 16:10:00,34.8,34.8,30.49,ENE,57,10.0,14.0,100,0.00,,,0.00,Wunderground v.1.15,2013-11-23 22:10:00,
2013-11-23 16:15:00,34.8,34.8,30.49,North,11,10.0,16.0,100,0.00,,,0.00,Wunderground v.1.15,2013-11-23 22:15:00,
2013-11-23 16:20:00,34.9,34.9,30.49,NE,44,11.0,14.0,100,0.00,,,0.00,Wunderground v.1.15,2013-11-23 22:20:00,
2013-11-23 16:25:00,34.9,34.9,30.49,NNE,31,11.0,15.0,100,0.00,,,0.00,Wunderground v.1.15,2013-11-23 22:25:00,
2013-11-23 16:31:00,35.0,35.0,30.49,ENE,63,9.0,14.0,100,0.00,,,0.00,Wunderground v.1.15,2013-11-23 22:31:00,
2013-11-23 16:36:00,35.0,35.0,30.49,NE,49,9.0,14.0,100,0.00,,,0.00,Wunderground v.1.15,2013-11-23 22:36:00,
2013-11-23 16:41:00,34.8,34.8,30.49,NNE,27,10.0,14.0,100,0.00,,,0.00,Wunderground v.1.15,2013-11-23 22:41:00,
2013-11-23 16:46:00,34.8,34.8,30.49,NNE,31,11.0,14.0,100,0.00,,,0.00,Wunderground v.1.15,2013-11-23 22:46:00,
2013-11-23 16:51:00,34.8,34.8,30.49,NE,37,11.0,14.0,100,0.00,,,0.00,Wunderground v.1.15,2013-11-23 22:51:00,
2013-11-23 16:56:00,34.8,34.8,30.50,ENE,57,11.0,16.0,100,0.00,,,0.00,Wunderground v.1.15,2013-11-23 22:56:00,
2013-11-23 17:01:00,34.9,34.9,30.49,ENE,72,11.0,14.0,100,0.00,,,0.00,Wunderground v.1.15,2013-11-23 23:01:00,
2013-11-23 17:06:00,34.9,34.9,30.49,NE,46,10.0,14.0,100,0.00,,,0.00,Wunderground v.1.15,2013-11-23 23:06:00,
2013-11-23 17:10:00,34.9,34.9,30.49,NE,37,10.0,14.0,100,0.00,,,0.00,Wunderground v.1.15,2013-11-23 23:10:00,
2013-11-23 17:15:00,35.0,35.0,30.49,NNE,32,10.0,15.0,100,0.00,,,0.00,Wunderground v.1.15,2013-11-23 23:15:00,
2013-11-23 17:20:00,35.0,35.0,30.49,NE,53,12.0,14.0,100,0.00,,,0.00,Wunderground v.1.15,2013-11-23 23:20:00,
2013-11-23 17:25:00,35.0,35.0,30.49,NE,51,11.0,14.0,100,0.00,,,0.00,Wunderground v.1.15,2013-11-23 23:25:00,
2013-11-23 17:31:00,35.1,35.1,30.49,ENE,64,11.0,15.0,100,0.00,,,0.00,Wunderground v.1.15,2013-11-23 23:31:00,
2013-11-23 17:36:00,35.2,35.2,30.49,NNE,31,10.0,15.0,100,0.00,,,0.00,Wunderground v.1.15,2013-11-23 23:36:00,
2013-11-23 17:41:00,35.2,35.2,30.49,NE,41,10.0,16.0,100,0.00,,,0.00,Wunderground v.1.15,2013-11-23 23:41:00,
2013-11-23 17:46:00,35.3,35.3,30.49,NE,39,11.0,16.0,100,0.00,,,0.00,Wunderground v.1.15,2013-11-23 23:46:00,
2013-11-23 17:51:00,35.4,35.4,30.49,ENE,74,10.0,14.0,100,0.00,,,0.00,Wunderground v.1.15,2013-11-23 23:51:00,
2013-11-23 17:57:00,35.4,35.4,30.50,NE,34,10.0,14.0,100,0.00,,,0.00,Wunderground v.1.15,2013-11-23 23:57:00,
2013-11-23 18:02:00,35.5,35.5,30.50,NE,49,10.0,14.0,100,0.00,,,0.00,Wunderground v.1.15,2013-11-24 00:02:00,
2013-11-23 18:07:00,35.5,35.5,30.50,NNE,20,10.0,14.0,100,0.00,,,0.00,Wunderground v.1.15,2013-11-24 00:07:00,
2013-11-23 18:12:00,35.5,35.5,30.50,NE,49,10.0,14.0,100,0.00,,,0.00,Wunderground v.1.15,2013-11-24 00:12:00,
2013-11-23 18:17:00,35.6,35.6,30.50,ENE,58,10.0,16.0,100,0.00,,,0.00,Wunderground v.1.15,2013-11-24 00:17:00,
2013-11-23 18:23:00,35.7,35.7,30.49,NE,52,10.0,16.0,100,0.00,,,0.00,Wunderground v.1.15,2013-11-24 00:23:00,
2013-11-23 18:28:00,35.7,35.7,30.49,NE,47,11.0,16.0,100,0.00,,,0.00,Wunderground v.1.15,2013-11-24 00:28:00,
2013-11-23 18:33:00,35.8,35.8,30.50,NE,51,11.0,14.0,100,0.00,,,0.00,Wunderground v.1.15,2013-11-24 00:33:00,
2013-11-23 18:38:00,35.9,35.9,30.50,NE,39,10.0,14.0,100,0.00,,,0.00,Wunderground v.1.15,2013-11-24 00:38:00,
2013-11-23 18:43:00,35.9,35.9,30.51,NE,35,9.0,14.0,100,0.00,,,0.01,Wunderground v.1.15,2013-11-24 00:43:00,
2013-11-23 18:48:00,35.9,35.9,30.51,NE,47,10.0,14.0,100,0.00,,,0.01,Wunderground v.1.15,2013-11-24 00:48:00,
2013-11-23 18:54:00,36.0,36.0,30.51,NE,39,10.0,14.0,100,0.00,,,0.01,Wunderground v.1.15,2013-11-24 00:54:00,
2013-11-23 18:59:00,36.0,36.0,30.51,ENE,60,9.0,14.0,100,0.00,,,0.01,Wunderground v.1.15,2013-11-24 00:59:00,
2013-11-23 19:04:00,36.1,36.1,30.51,ENE,57,9.0,14.0,100,0.00,,,0.01,Wunderground v.1.15,2013-11-24 01:04:00,
2013-11-23 19:09:00,36.1,36.1,30.51,NE,41,8.0,14.0,100,0.00,,,0.01,Wunderground v.1.15,2013-11-24 01:09:00,
2013-11-23 19:14:00,36.3,36.3,30.51,ENE,58,8.0,14.0,100,0.00,,,0.01,Wunderground v.1.15,2013-11-24 01:14:00,
2013-11-23 19:20:00,36.3,36.3,30.51,NE,53,8.0,14.0,100,0.00,,,0.01,Wunderground v.1.15,2013-11-24 01:20:00,
2013-11-23 19:25:00,36.3,36.3,30.51,ENE,69,10.0,14.0,100,0.00,,,0.01,Wunderground v.1.15,2013-11-24 01:25:00,
2013-11-23 19:30:00,36.3,36.3,30.51,NE,44,10.0,14.0,100,0.00,,,0.01,Wunderground v.1.15,2013-11-24 01:30:00,
2013-11-23 19:35:00,36.3,36.3,30.51,NNE,19,11.0,18.0,100,0.00,,,0.01,Wunderground v.1.15,2013-11-24 01:35:00,
2013-11-23 19:40:00,36.4,36.4,30.51,ENE,59,10.0,14.0,100,0.00,,,0.01,Wunderground v.1.15,2013-11-24 01:40:00,
2013-11-23 19:46:00,36.4,36.4,30.52,NE,46,10.0,14.0,100,0.00,,,0.01,Wunderground v.1.15,2013-11-24 01:46:00,
2013-11-23 19:51:00,36.4,36.4,30.52,NE,54,9.0,14.0,100,0.00,,,0.01,Wunderground v.1.15,2013-11-24 01:51:00,
2013-11-23 19:56:00,36.5,36.5,30.52,NE,46,9.0,14.0,100,0.00,,,0.01,Wunderground v.1.15,2013-11-24 01:56:00,
2013-11-23 20:01:00,36.5,36.5,30.53,NE,53,8.0,14.0,100,0.00,,,0.01,Wunderground v.1.15,2013-11-24 02:01:00,
2013-11-23 20:06:00,36.4,36.4,30.53,ENE,60,9.0,14.0,100,0.00,,,0.01,Wunderground v.1.15,2013-11-24 02:06:00,
2013-11-23 20:12:00,36.4,36.4,30.52,ENE,60,10.0,14.0,100,0.00,,,0.01,Wunderground v.1.15,2013-11-24 02:12:00,
2013-11-23 20:17:00,36.3,36.3,30.52,NE,53,10.0,17.0,100,0.00,,,0.01,Wunderground v.1.15,2013-11-24 02:17:00,
2013-11-23 20:22:00,36.3,36.3,30.52,NE,41,11.0,14.0,100,0.00,,,0.01,Wunderground v.1.15,2013-11-24 02:22:00,
2013-11-23 20:27:00,36.2,36.2,30.53,NE,56,11.0,14.0,100,0.00,,,0.01,Wunderground v.1.15,2013-11-24 02:27:00,
2013-11-23 20:32:00,36.2,36.2,30.53,ENE,60,10.0,14.0,100,0.00,,,0.01,Wunderground v.1.15,2013-11-24 02:32:00,
2013-11-23 20:38:00,36.2,36.2,30.53,NNE,18,10.0,14.0,100,0.00,,,0.01,Wunderground v.1.15,2013-11-24 02:38:00,
2013-11-23 20:43:00,36.1,36.1,30.53,ENE,57,10.0,14.0,100,0.00,,,0.01,Wunderground v.1.15,2013-11-24 02:43:00,
2013-11-23 20:48:00,36.1,36.1,30.53,ENE,77,9.0,14.0,100,0.00,,,0.01,Wunderground v.1.15,2013-11-24 02:48:00,
2013-11-23 20:53:00,36.1,36.1,30.54,NE,49,9.0,14.0,100,0.00,,,0.01,Wunderground v.1.15,2013-11-24 02:53:00,
2013-11-23 20:58:00,36.0,36.0,30.53,ENE,65,10.0,14.0,100,0.00,,,0.01,Wunderground v.1.15,2013-11-24 02:58:00,
2013-11-23 21:04:00,36.0,36.0,30.54,NE,49,9.0,14.0,100,0.00,,,0.01,Wunderground v.1.15,2013-11-24 03:04:00,
2013-11-23 21:09:00,36.0,36.0,30.54,NE,39,8.0,14.0,100,0.00,,,0.01,Wunderground v.1.15,2013-11-24 03:09:00,
2013-11-23 21:14:00,36.1,36.1,30.55,NE,40,7.0,14.0,100,0.00,,,0.01,Wunderground v.1.15,2013-11-24 03:14:00,
2013-11-23 21:19:00,36.0,36.0,30.55,ENE,72,8.0,16.0,100,0.00,,,0.01,Wunderground v.1.15,2013-11-24 03:19:00,
2013-11-23 21:24:00,36.1,36.1,30.55,NNE,27,9.0,14.0,100,0.00,,,0.01,Wunderground v.1.15,2013-11-24 03:24:00,
2013-11-23 21:30:00,36.1,36.1,30.55,NE,50,8.0,14.0,100,0.00,,,0.01,Wunderground v.1.15,2013-11-24 03:30:00,
2013-11-23 21:35:00,36.2,36.2,30.55,ENE,61,8.0,14.0,100,0.00,,,0.01,Wunderground v.1.15,2013-11-24 03:35:00,
2013-11-23 21:40:00,36.1,36.1,30.54,ENE,57,9.0,9.0,100,0.00,,,0.01,Wunderground v.1.15,2013-11-24 03:40:00,
2013-11-23 21:45:00,36.2,36.2,30.54,ENE,60,9.0,14.0,100,0.00,,,0.01,Wunderground v.1.15,2013-11-24 03:45:00,
2013-11-23 21:50:00,36.2,36.2,30.55,NE,37,8.0,14.0,100,0.00,,,0.01,Wunderground v.1.15,2013-11-24 03:50:00,
2013-11-23 21:56:00,36.3,36.3,30.55,NE,54,8.0,14.0,100,0.00,,,0.01,Wunderground v.1.15,2013-11-24 03:56:00,
2013-11-23 22:01:00,36.3,36.3,30.55,NE,45,8.0,14.0,100,0.00,,,0.01,Wunderground v.1.15,2013-11-24 04:01:00,
2013-11-23 22:06:00,36.4,36.4,30.55,North,352,7.0,14.0,100,0.00,,,0.01,Wunderground v.1.15,2013-11-24 04:06:00,
2013-11-23 22:11:00,36.3,36.3,30.55,NE,49,7.0,14.0,100,0.00,,,0.01,Wunderground v.1.15,2013-11-24 04:11:00,
2013-11-23 22:16:00,36.4,36.4,30.55,NE,39,7.0,14.0,100,0.00,,,0.01,Wunderground v.1.15,2013-11-24 04:16:00,
2013-11-23 22:21:00,36.5,36.5,30.54,NE,39,6.0,14.0,100,0.00,,,0.01,Wunderground v.1.15,2013-11-24 04:21:00,
2013-11-23 22:26:00,36.5,36.5,30.54,NNE,32,7.0,14.0,100,0.00,,,0.01,Wunderground v.1.15,2013-11-24 04:26:00,
2013-11-23 22:31:00,36.5,36.5,30.54,NE,44,7.0,14.0,100,0.00,,,0.01,Wunderground v.1.15,2013-11-24 04:31:00,
2013-11-23 22:36:00,36.6,36.6,30.54,NE,45,8.0,14.0,100,0.00,,,0.01,Wunderground v.1.15,2013-11-24 04:36:00,
2013-11-23 22:41:00,36.5,36.5,30.54,NE,41,8.0,14.0,100,0.00,,,0.01,Wunderground v.1.15,2013-11-24 04:41:00,
2013-11-23 22:47:00,36.5,36.5,30.53,NE,37,9.0,14.0,100,0.00,,,0.01,Wunderground v.1.15,2013-11-24 04:47:00,
2013-11-23 22:52:00,36.7,36.7,30.53,NE,47,8.0,14.0,100,0.00,,,0.01,Wunderground v.1.15,2013-11-24 04:52:00,
2013-11-23 22:57:00,36.6,36.6,30.53,NE,41,7.0,14.0,100,0.00,,,0.01,Wunderground v.1.15,2013-11-24 04:57:00,
2013-11-23 23:01:00,36.6,36.6,30.53,ENE,64,9.0,14.0,100,0.00,,,0.01,Wunderground v.1.15,2013-11-24 05:01:00,
2013-11-23 23:02:00,36.6,36.6,30.53,ENE,63,9.0,14.0,100,0.00,,,0.01,Wunderground v.1.15,2013-11-24 05:02:00,
2013-11-23 23:03:00,36.6,36.6,30.53,NE,42,9.0,14.0,100,0.00,,,0.01,Wunderground v.1.15,2013-11-24 05:03:00,
2013-11-23 23:06:00,36.6,36.6,30.53,NE,56,8.0,14.0,100,0.00,,,0.01,Wunderground v.1.15,2013-11-24 05:06:00,
2013-11-23 23:07:00,36.6,36.6,30.53,ENE,60,8.0,14.0,100,0.00,,,0.01,Wunderground v.1.15,2013-11-24 05:07:00,
2013-11-23 23:10:00,36.6,36.6,30.53,NNE,27,9.0,14.0,100,0.00,,,0.01,Wunderground v.1.15,2013-11-24 05:10:00,
2013-11-23 23:15:00,36.7,36.7,30.54,ENE,57,9.0,14.0,100,0.00,,,0.01,Wunderground v.1.15,2013-11-24 05:15:00,
2013-11-23 23:20:00,36.7,36.7,30.54,NE,48,8.0,14.0,100,0.00,,,0.01,Wunderground v.1.15,2013-11-24 05:20:00,
2013-11-23 23:26:00,36.8,36.8,30.54,ENE,73,8.0,14.0,100,0.00,,,0.01,Wunderground v.1.15,2013-11-24 05:26:00,
2013-11-23 23:31:00,36.9,36.9,30.54,ENE,58,8.0,10.0,100,0.00,,,0.01,Wunderground v.1.15,2013-11-24 05:31:00,
2013-11-23 23:36:00,36.9,36.6,30.53,NE,37,9.0,14.0,99,0.00,,,0.01,Wunderground v.1.15,2013-11-24 05:36:00,
2013-11-23 23:41:00,37.0,36.5,30.53,NE,54,8.0,14.0,98,0.00,,,0.01,Wunderground v.1.15,2013-11-24 05:41:00,
2013-11-23 23:46:00,37.1,36.3,30.53,NE,53,9.0,14.0,97,0.00,,,0.01,Wunderground v.1.15,2013-11-24 05:46:00,
2013-11-23 23:52:00,37.2,36.2,30.53,NE,51,9.0,14.0,96,0.00,,,0.01,Wunderground v.1.15,2013-11-24 05:52:00,
2013-11-23 23:57:00,37.2,35.9,30.53,ENE,77,8.0,14.0,95,0.00,,,0.01,Wunderground v.1.15,2013-11-24 05:57:00,
2013-11-23 23:59:00,37.2,35.6,30.53,NE,47,8.0,8.0,94,0.00,,,0.00,Wunderground v.1.15,2013-11-24 05:59:00,